User: anonymous   Login
Location: Newark
(40.9833°N, 0.0333°W)
Time: 02:11:01
(UTC+00:00)
Language:

Altair - Orbit

View from above orbital plane
View from above orbital plane
View from above satellite
View from above satellite

Ground track
Ground track

The orbit data is extracted from the following two-line orbital elements,

1 00050U 60009B   21127.56466794 -.00000039  00000-0  43383-3 0  9997
2 00050  47.2300 195.3371 0114425 211.7951 147.5892 12.20117152709795
Epoch (UTC): 07 May 2021 13:33:07
Eccentricity: 0.0114425
inclination: 47.2300°
perigee height: 1501 km
apogee height: 1683 km
right ascension of ascending node: 195.3371°
argument of perigee: 211.7951°
revolutions per day: 12.20117152
mean anomaly at epoch: 147.5892°
orbit number at epoch: 70979

The dashed part of the orbit path shows where the satellite is in the earth's shadow,  

DLR